This is the latest recevied weather packets stored in our database for station/object KF7SOJ. If no packets are shown the sender has not sent any weather packets the latest 10 day(s).
| Time | Temp. | Humidity | Pressure | Rain* | Wind** | Luminosity | Snow |
|---|---|---|---|---|---|---|---|
| 1787897210 | 20° C | 64% | 930.7 hPa | 0 mm | - | 0 W/m² | - |
| 1787896905 | 20° C | 63% | 930.7 hPa | 0 mm | - | 0 W/m² | - |
| 1787896600 | 19.44° C | 67% | 930.5 hPa | 0 mm | - | 0 W/m² | - |
| 1787896305 | 20° C | 65% | 930.6 hPa | 0 mm | - | 0 W/m² | - |
| 1787895991 | 20.56° C | 61% | 930.7 hPa | 0 mm | - | 0 W/m² | - |
| 1787895691 | 21.67° C | 57% | 930.8 hPa | 0 mm | - | 0 W/m² | - |
| 1787895386 | 21.67° C | 56% | 930.7 hPa | 0 mm | - | 0 W/m² | - |
| 1787895082 | 22.78° C | 52% | 930.7 hPa | 0 mm | - | 0 W/m² | - |
| 1787894777 | 22.78° C | 50% | 930.9 hPa | 0 mm | - | 0 W/m² | - |
| 1787894473 | 22.78° C | 51% | 930.8 hPa | 0 mm | - | 0 W/m² | - |
| 1787894172 | 22.78° C | 48% | 930.9 hPa | 0 mm | - | 0 W/m² | - |
| 1787893868 | 22.22° C | 52% | 931.5 hPa | 0 mm | - | 0 W/m² | - |
| 1787893564 | 22.22° C | 51% | 931.4 hPa | 0 mm | - | 0 W/m² | - |
| 1787893259 | 21.67° C | 53% | 931.4 hPa | 0 mm | - | 0 W/m² | - |
| 1787892955 | 21.67° C | 56% | 931.7 hPa | 0 mm | - | 0 W/m² | - |
| 1787892652 | 21.67° C | 59% | 931.8 hPa | 0.51 mm | - | 0 W/m² | - |
| 1787892348 | 21.67° C | 57% | 932 hPa | 3.05 mm | - | 0 W/m² | - |
| 1787892043 | 22.78° C | 56% | 932.4 hPa | 1.78 mm | - | 0 W/m² | - |
| 1787891738 | 23.89° C | 46% | 932.8 hPa | 0 mm | - | 0 W/m² | - |
| 1787891434 | 25° C | 41% | 932.8 hPa | 0 mm | - | 0 W/m² | - |
| 1787891133 | 25° C | 39% | 933.1 hPa | 0 mm | - | 0 W/m² | - |
| 1787890828 | 23.89° C | 42% | 932.8 hPa | 0 mm | - | 0 W/m² | - |
| 1787890527 | 23.89° C | 43% | 932.5 hPa | 0 mm | - | 0 W/m² | - |
| 1787890222 | 23.89° C | 43% | 932.8 hPa | 0 mm | - | 0 W/m² | - |
| 1787889918 | 23.89° C | 43% | 933 hPa | 0 mm | - | 0 W/m² | - |
* Rain latest hour (hover to see other rain measurements)
** Current wind speed in m/s (hover to see current wind gust speed)